EW1687 Weather Reports


Display with metric or nautical units.
time (UTC)temp
F
wind
direction
speed
MPH
gust
MPH
rain 1hr
in
rain 24hr
in
rain mn
in
humidity
%
barometer
mb
20260507070057 51 350 3.0 9.0 0.00 0.47 0.23 92 1012.2
20260507065554 52 317 3.0 8.0 0.00 0.47 0.23 93 1012.2
20260507065052 52 343 0.0 0.0 0.00 0.47 0.23 93 1012.1
20260507064610 52 0 0.0 0.0 0.01 0.47 0.23 93 1012.0
20260507064055 52 0 0.0 0.0 0.01 0.47 0.23 93 1012.0
20260507063554 52 0 0.0 0.0 0.01 0.47 0.23 93 1012.0
20260507063059 52 0 0.0 0.0 0.01 0.47 0.23 93 1012.1
20260507062552 52 0 0.0 0.0 0.01 0.47 0.23 92 1012.1
20260507062055 52 0 0.0 0.0 0.01 0.47 0.23 92 1012.2
20260507061553 52 0 0.0 0.0 0.01 0.47 0.23 92 1012.2
20260507061051 52 0 0.0 0.0 0.02 0.47 0.23 92 1012.3
20260507060551 52 0 0.0 0.0 0.03 0.47 0.23 92 1012.1
20260507060058 52 0 0.0 0.0 0.04 0.47 0.23 92 1012.1
20260507055552 52 0 0.0 0.0 0.05 0.47 0.23 92 1012.2
20260507055053 52 0 0.0 0.0 0.08 0.47 0.23 92 1012.1
20260507054608 52 0 0.0 0.0 0.13 0.46 0.22 91 1011.7
20260507054052 52 0 0.0 0.0 0.17 0.46 0.22 91 1012.0
20260507053552 52 0 0.0 0.0 0.19 0.46 0.22 91 1011.7
20260507053052 52 0 0.0 0.0 0.20 0.46 0.22 91 1011.5
20260507052552 52 0 0.0 0.0 0.21 0.46 0.22 90 1011.7
20260507052052 52 0 0.0 0.0 0.21 0.46 0.22 90 1012.0
20260507051555 52 0 0.0 0.0 0.21 0.46 0.22 90 1012.0
20260507051052 52 0 0.0 0.0 0.20 0.45 0.21 89 1011.9
20260507050552 53 0 0.0 0.0 0.19 0.44 0.20 89 1012.1
20260507050100 53 0 0.0 0.0 0.19 0.43 0.19 89 1012.0
20260507045556 53 0 0.0 8.0 0.18 0.42 0.18 88 1012.3
20260507045055 53 0 0.0 10.0 0.15 0.38 0.14 88 1012.1
20260507044555 54 294 3.0 10.0 0.11 0.33 0.09 87 1012.2
20260507044052 54 344 4.0 10.0 0.07 0.29 0.05 87 1012.2
20260507043552 54 0 0.0 0.0 0.05 0.27 0.03 88 1012.0
20260507043101 54 0 0.0 0.0 0.04 0.26 0.02 88 1011.7
20260507042553 54 0 0.0 0.0 0.03 0.25 0.01 87 1011.7
20260507042052 54 0 0.0 0.0 0.03 0.25 0.01 86 1011.6
20260507041605 55 0 0.0 0.0 0.03 0.25 0.01 86 1011.6
20260507041054 55 0 0.0 0.0 0.03 0.25 0.01 85 1011.7
20260507040555 55 0 0.0 9.0 0.03 0.25 0.01 84 1011.5
20260507040100 56 0 0.0 9.0 0.02 0.24 0.00 83 1011.4
20260507035552 56 291 4.0 9.0 0.02 0.24 0.24 82 1011.2
20260507035052 56 342 3.0 9.0 0.01 0.23 0.23 81 1011.0
20260507034607 56 315 2.0 7.0 0.00 0.22 0.22 81 1011.1
20260507034052 56 0 1.0 8.0 0.00 0.22 0.22 80 1011.3
20260507033557 57 0 1.0 9.0 0.00 0.22 0.22 80 1011.3
20260507033055 57 302 3.0 9.0 0.00 0.22 0.22 79 1011.5
20260507032552 57 302 3.0 8.0 0.00 0.22 0.22 79 1011.5
20260507032054 57 315 3.0 10.0 0.00 0.22 0.22 79 1011.2
20260507031604 57 304 3.0 10.0 0.00 0.22 0.22 79 1011.1
20260507031054 57 321 6.0 10.0 0.00 0.22 0.22 79 1011.2
20260507030552 57 311 4.0 11.0 0.00 0.22 0.22 79 1011.1
20260507025551 57 346 5.0 13.0 0.00 0.22 0.22 80 1010.9
20260507025054 58 349 7.0 13.0 0.00 0.22 0.22 80 1010.8
20260507024604 58 350 5.0 10.0 0.00 0.22 0.22 80 1010.9
20260507024053 58 290 2.0 9.0 0.00 0.22 0.22 81 1011.3
20260507023551 58 324 3.0 9.0 0.00 0.22 0.22 80 1011.1
20260507023110 58 323 2.0 8.0 0.00 0.22 0.22 81 1011.2
20260507022551 58 313 3.0 9.0 0.00 0.22 0.22 81 1010.9
20260507022052 58 304 3.0 11.0 0.00 0.22 0.22 80 1011.1
20260507021557 58 336 2.0 11.0 0.00 0.22 0.22 80 1010.9
20260507021053 58 311 4.0 14.0 0.00 0.22 0.22 80 1010.9
20260507020552 58 322 5.0 14.0 0.00 0.22 0.22 80 1010.8
20260507020059 59 331 3.0 10.0 0.00 0.22 0.22 80 1010.9
20260507015551 59 316 4.0 16.0 0.00 0.22 0.22 81 1011.0
20260507015052 59 329 4.0 16.0 0.00 0.22 0.22 81 1011.1
20260507014606 59 296 4.0 11.0 0.00 0.22 0.22 82 1011.1
20260507014052 59 333 3.0 8.0 0.00 0.22 0.22 82 1011.2
20260507013551 60 350 1.0 6.0 0.00 0.22 0.22 83 1011.1
20260507013112 60 342 0.0 5.0 0.00 0.22 0.22 84 1011.1
20260507012551 60 0 1.0 5.0 0.01 0.22 0.22 84 1011.2
20260507012052 60 0 0.0 5.0 0.01 0.22 0.22 84 1011.3
20260507011556 60 0 0.0 5.0 0.01 0.22 0.22 83 1011.2
20260507011051 60 0 2.0 9.0 0.01 0.22 0.22 84 1011.4
20260507010552 60 304 3.0 9.0 0.01 0.22 0.22 84 1011.3
20260507010054 60 298 3.0 9.0 0.01 0.22 0.22 83 1011.0
20260507005552 60 284 4.0 8.0 0.01 0.22 0.22 84 1010.9
20260507005051 60 288 5.0 9.0 0.01 0.22 0.22 84 1011.1
20260507004552 60 278 5.0 10.0 0.01 0.22 0.22 84 1010.9
20260507004052 61 303 5.0 10.0 0.01 0.22 0.22 84 1010.6
20260507003552 61 300 3.0 11.0 0.01 0.22 0.22 84 1010.4
20260507003057 61 279 5.0 13.0 0.01 0.22 0.22 85 1010.5
20260507002552 61 324 8.0 13.0 0.00 0.21 0.21 85 1010.3
20260507002052 61 298 6.0 11.0 0.00 0.21 0.21 87 1010.6
20260507001612 62 296 6.0 14.0 0.00 0.21 0.21 88 1010.7
20260507001054 62 269 7.0 14.0 0.00 0.21 0.21 89 1010.2
20260507000551 63 277 5.0 9.0 0.00 0.21 0.21 91 1009.9
20260507000059 63 286 5.0 9.0 0.00 0.21 0.21 91 1009.7
20260506235552 63 290 4.0 9.0 0.00 0.21 0.21 91 1009.6
20260506235054 63 281 4.0 9.0 0.00 0.21 0.21 91 1009.4
20260506234555 63 288 5.0 8.0 0.01 0.21 0.21 91 1009.2
20260506234054 63 263 5.0 8.0 0.02 0.21 0.21 91 1009.2
20260506233552 63 267 4.0 8.0 0.03 0.21 0.21 91 1009.3
20260506233059 63 263 3.0 7.0 0.03 0.21 0.21 91 1008.9
20260506232551 64 286 2.0 5.0 0.03 0.21 0.21 91 1008.8
20260506232052 64 286 2.0 5.0 0.03 0.21 0.21 91 1008.8
20260506231554 64 288 3.0 8.0 0.03 0.21 0.21 91 1009.0
20260506231053 64 300 4.0 8.0 0.03 0.21 0.21 91 1008.9
20260506230552 64 245 2.0 8.0 0.03 0.21 0.21 90 1008.9
20260506230055 64 258 4.0 8.0 0.03 0.21 0.21 90 1008.9
20260506225555 64 238 4.0 9.0 0.03 0.21 0.21 89 1008.8
20260506225052 64 254 2.0 9.0 0.03 0.21 0.21 88 1009.0
20260506224604 65 254 4.0 9.0 0.02 0.20 0.20 88 1009.0
20260506224052 65 258 3.0 11.0 0.01 0.19 0.19 88 1008.9
20260506223551 65 221 3.0 11.0 0.00 0.18 0.18 87 1008.9
20260506223115 65 259 3.0 11.0 0.00 0.18 0.18 86 1009.0
20260506222552 66 250 2.0 12.0 0.00 0.18 0.18 86 1008.6
20260506222054 66 251 4.0 12.0 0.00 0.18 0.18 85 1008.8
20260506221559 66 252 3.0 10.0 0.00 0.18 0.18 85 1008.7
20260506221053 66 252 3.0 10.0 0.00 0.18 0.18 85 1008.7
20260506220552 66 247 3.0 9.0 0.00 0.18 0.18 85 1008.7
20260506220056 66 0 2.0 10.0 0.00 0.18 0.18 84 1008.5
20260506215552 66 223 4.0 10.0 0.00 0.18 0.18 84 1008.6
20260506215051 66 261 4.0 12.0 0.00 0.18 0.18 84 1008.4
20260506214604 66 264 5.0 12.0 0.00 0.18 0.18 84 1008.4
20260506214054 66 261 3.0 8.0 0.00 0.18 0.18 84 1008.2
20260506213556 66 234 0.0 8.0 0.00 0.18 0.18 84 1008.1
20260506213053 66 226 1.0 8.0 0.00 0.18 0.18 84 1008.0
20260506212552 66 0 2.0 8.0 0.00 0.18 0.18 84 1007.9
20260506212056 66 228 3.0 7.0 0.00 0.18 0.18 84 1008.1
20260506211557 67 214 1.0 7.0 0.00 0.18 0.18 84 1008.0
20260506211052 67 219 0.0 8.0 0.00 0.18 0.18 84 1008.0
20260506210552 67 223 3.0 12.0 0.00 0.18 0.18 83 1008.0
20260506205551 67 231 5.0 12.0 0.00 0.18 0.18 84 1007.8
20260506205051 67 243 4.0 8.0 0.00 0.18 0.18 84 1007.7
20260506204556 67 262 4.0 8.0 0.00 0.18 0.18 85 1007.7
20260506204052 67 273 1.0 8.0 0.00 0.18 0.18 85 1007.8
20260506203554 66 258 1.0 8.0 0.00 0.18 0.18 87 1007.9
20260506203101 66 0 1.0 8.0 0.00 0.18 0.18 87 1007.9
20260506202553 65 228 2.0 7.0 0.00 0.18 0.18 87 1008.0
20260506202053 65 237 1.0 7.0 0.00 0.18 0.18 87 1007.9
20260506201555 65 0 1.0 7.0 0.00 0.18 0.18 87 1008.0
20260506201053 65 0 1.0 7.0 0.00 0.18 0.18 86 1008.0
20260506200553 65 269 2.0 10.0 0.00 0.18 0.18 87 1008.0
20260506200136 65 241 2.0 10.0 0.00 0.18 0.18 87 1008.1
20260506195552 65 249 5.0 10.0 0.00 0.18 0.18 87 1008.1
20260506195052 65 255 5.0 10.0 0.00 0.18 0.18 87 1007.9
20260506194609 65 250 4.0 11.0 0.00 0.18 0.18 87 1008.0
20260506194051 65 243 5.0 11.0 0.00 0.18 0.18 87 1008.1
20260506193551 65 261 4.0 11.0 0.00 0.18 0.18 87 1008.0
20260506193131 65 209 6.0 12.0 0.00 0.18 0.18 86 1008.1
20260506192553 65 251 6.0 12.0 0.00 0.18 0.18 86 1008.2
20260506192054 65 261 3.0 11.0 0.00 0.18 0.18 86 1008.1
20260506191601 65 257 7.0 14.0 0.00 0.18 0.18 85 1008.2
20260506191052 66 241 5.0 16.0 0.00 0.18 0.18 85 1008.2
20260506190553 66 246 9.0 16.0 0.00 0.18 0.18 86 1008.2
20260506185553 65 252 4.0 9.0 0.00 0.18 0.18 89 1008.1
20260506185052 64 243 4.0 9.0 0.00 0.18 0.18 87 1008.2
20260506184608 64 202 3.0 9.0 0.00 0.18 0.18 87 1008.3
20260506184053 64 254 3.0 10.0 0.00 0.18 0.18 87 1008.4
20260506183552 64 218 3.0 10.0 0.00 0.18 0.18 87 1008.4
20260506183113 64 243 2.0 9.0 0.00 0.18 0.18 87 1008.3
20260506182551 64 0 3.0 12.0 0.00 0.18 0.18 86 1008.4
20260506182053 64 240 4.0 12.0 0.00 0.18 0.18 86 1008.4
20260506181610 64 230 3.0 10.0 0.00 0.18 0.18 86 1008.5
20260506181053 64 221 3.0 11.0 0.00 0.18 0.18 86 1008.6
20260506180552 64 239 4.0 12.0 0.00 0.18 0.18 86 1008.5
20260506180110 64 254 4.0 12.0 0.00 0.18 0.18 87 1008.6
20260506175554 63 266 4.0 12.0 0.00 0.18 0.18 87 1008.6
20260506175051 63 252 5.0 12.0 0.00 0.18 0.18 87 1008.6
20260506174609 63 257 3.0 12.0 0.00 0.18 0.18 87 1008.6
20260506174054 63 263 3.0 11.0 0.00 0.18 0.18 88 1008.6
20260506173551 63 209 4.0 11.0 0.00 0.18 0.18 88 1008.5
20260506173123 63 163 2.0 9.0 0.00 0.18 0.18 88 1008.6
20260506172558 63 139 3.0 9.0 0.00 0.18 0.18 89 1008.6
20260506172053 62 207 2.0 12.0 0.00 0.18 0.18 89 1008.6
20260506171603 62 0 4.0 12.0 0.00 0.18 0.18 89 1008.7
20260506171051 62 228 4.0 12.0 0.00 0.18 0.18 89 1008.6
20260506170553 62 164 5.0 11.0 0.00 0.18 0.18 89 1008.8
20260506170059 62 222 2.0 11.0 0.00 0.18 0.18 89 1008.8
20260506165551 62 144 3.0 11.0 0.00 0.18 0.18 89 1008.9
20260506165051 62 238 3.0 10.0 0.00 0.18 0.18 90 1008.7
20260506164555 62 238 4.0 10.0 0.00 0.18 0.18 90 1008.7
20260506164051 62 205 3.0 11.0 0.00 0.18 0.18 90 1008.7
20260506163551 62 219 3.0 13.0 0.00 0.18 0.18 90 1008.7
20260506163103 62 225 3.0 13.0 0.00 0.18 0.18 91 1008.7
20260506162555 61 171 3.0 11.0 0.00 0.18 0.18 91 1008.7
20260506162053 61 230 5.0 11.0 0.00 0.18 0.18 91 1008.8
20260506161558 61 243 3.0 11.0 0.00 0.18 0.18 92 1008.9
20260506161052 61 158 2.0 11.0 0.01 0.18 0.18 92 1008.8
20260506160555 61 209 2.0 10.0 0.01 0.18 0.18 92 1009.0
20260506160107 61 227 2.0 10.0 0.01 0.18 0.18 92 1008.9
20260506155554 61 212 2.0 10.0 0.02 0.18 0.18 92 1009.0
20260506155054 61 219 2.0 10.0 0.02 0.18 0.18 92 1008.9
20260506154553 61 198 2.0 12.0 0.04 0.18 0.18 92 1008.8
20260506154052 61 225 4.0 12.0 0.06 0.18 0.18 93 1008.9
20260506153552 61 0 4.0 12.0 0.07 0.18 0.18 93 1008.7
20260506153055 61 229 2.0 11.0 0.08 0.18 0.18 93 1008.7
20260506152552 61 130 2.0 11.0 0.09 0.18 0.18 93 1008.7
20260506152053 61 123 3.0 16.0 0.09 0.18 0.18 93 1008.8
20260506151554 61 147 7.0 16.0 0.10 0.18 0.18 92 1008.3
20260506151051 60 155 7.0 15.0 0.09 0.17 0.17 92 1008.3
20260506150553 60 145 10.0 17.0 0.09 0.17 0.17 92 1008.8
20260506150058 61 163 7.0 17.0 0.09 0.17 0.17 92 1008.9
20260506145555 60 162 3.0 12.0 0.08 0.16 0.16 92 1009.2
20260506145053 60 138 3.0 11.0 0.09 0.16 0.16 92 1009.5
20260506144555 60 146 2.0 11.0 0.07 0.14 0.14 91 1009.5
20260506144053 61 233 3.0 11.0 0.06 0.12 0.12 91 1009.7
20260506143553 61 234 3.0 10.0 0.06 0.11 0.11 91 1009.7
20260506143055 61 0 2.0 10.0 0.05 0.10 0.10 91 1009.6
20260506142552 61 0 2.0 9.0 0.05 0.09 0.09 91 1009.6
20260506142053 61 134 3.0 11.0 0.06 0.09 0.09 91 1009.5
20260506141553 61 235 2.0 12.0 0.05 0.08 0.08 91 1009.5
20260506141052 61 136 3.0 13.0 0.05 0.08 0.08 91 1009.4
20260506140555 61 105 4.0 13.0 0.06 0.08 0.08 91 1009.3
20260506140053 61 134 5.0 12.0 0.06 0.08 0.08 91 1009.1
20260506135551 61 141 4.0 10.0 0.06 0.08 0.08 91 1009.1
20260506135051 61 0 4.0 14.0 0.05 0.07 0.07 90 1009.1
20260506134618 61 128 5.0 15.0 0.05 0.07 0.07 90 1009.1
20260506134055 61 173 4.0 15.0 0.04 0.06 0.06 89 1009.0
20260506133552 61 152 8.0 13.0 0.04 0.05 0.05 89 1009.1
20260506133059 61 146 6.0 13.0 0.03 0.04 0.04 89 1009.1
20260506132551 61 196 7.0 15.0 0.03 0.04 0.04 88 1009.2
20260506132051 61 122 4.0 15.0 0.03 0.03 0.03 88 1009.1
20260506131609 61 0 6.0 12.0 0.03 0.03 0.03 87 1009.2
20260506131053 61 126 4.0 12.0 0.03 0.03 0.03 87 1009.3
20260506130551 61 165 4.0 15.0 0.02 0.02 0.02 87 1009.3
20260506130057 61 146 4.0 15.0 0.02 0.02 0.02 87 1009.3
20260506125554 61 164 6.0 14.0 0.02 0.02 0.02 86 1009.2
20260506125054 62 216 5.0 14.0 0.02 0.02 0.02 86 1009.2
20260506124554 62 199 5.0 13.0 0.02 0.02 0.02 85 1009.1
20260506124055 62 153 4.0 13.0 0.02 0.02 0.02 85 1009.3
20260506123553 62 157 3.0 10.0 0.01 0.01 0.01 85 1009.2
20260506123056 62 206 3.0 17.0 0.01 0.01 0.01 84 1009.3
20260506122553 62 147 7.0 17.0 0.01 0.01 0.01 83 1009.4
20260506122050 63 174 2.0 11.0 0.00 0.00 0.00 82 1009.4
20260506121605 63 0 3.0 13.0 0.00 0.00 0.00 81 1009.6
20260506121050 63 0 4.0 13.0 0.00 0.00 0.00 80 1009.6
20260506120553 63 247 5.0 11.0 0.00 0.00 0.00 79 1009.7
20260506120055 63 210 5.0 12.0 0.00 0.00 0.00 79 1009.7
20260506115552 63 229 4.0 12.0 0.00 0.00 0.00 78 1009.7
20260506115052 64 217 5.0 13.0 0.00 0.00 0.00 78 1009.5
20260506114555 64 251 3.0 13.0 0.00 0.00 0.00 77 1009.4
20260506114052 64 212 3.0 12.0 0.00 0.00 0.00 76 1009.3
20260506113551 64 238 4.0 12.0 0.00 0.00 0.00 75 1009.5
20260506113053 65 277 5.0 12.0 0.00 0.00 0.00 73 1009.4
20260506112551 65 211 4.0 11.0 0.00 0.00 0.00 72 1009.1
20260506112050 65 219 2.0 10.0 0.00 0.00 0.00 71 1009.0
20260506111610 65 203 4.0 11.0 0.00 0.00 0.00 71 1009.0
20260506111050 65 173 1.0 11.0 0.00 0.00 0.00 71 1009.0
20260506110553 65 194 2.0 11.0 0.00 0.00 0.00 70 1008.8
20260506110055 65 171 3.0 10.0 0.00 0.00 0.00 70 1008.9
20260506105552 65 219 3.0 10.0 0.00 0.00 0.00 70 1008.9
20260506105051 66 233 3.0 10.0 0.00 0.00 0.00 69 1008.7
20260506104554 66 134 3.0 14.0 0.00 0.00 0.00 68 1008.6
20260506104055 66 0 3.0 14.0 0.00 0.00 0.00 66 1008.6
20260506103551 66 133 6.0 14.0 0.00 0.00 0.00 66 1008.5
20260506103104 66 230 1.0 15.0 0.00 0.00 0.00 66 1008.5
20260506102551 67 219 6.0 15.0 0.00 0.00 0.00 65 1008.5
20260506102056 66 192 2.0 11.0 0.00 0.00 0.00 66 1008.5
20260506101553 67 148 2.0 12.0 0.00 0.00 0.00 65 1008.5
20260506101051 67 123 4.0 12.0 0.00 0.00 0.00 65 1008.4
20260506100553 66 134 2.0 11.0 0.00 0.00 0.00 65 1008.3
20260506100103 66 190 2.0 9.0 0.00 0.00 0.00 65 1008.3
20260506095551 67 240 4.0 13.0 0.00 0.00 0.00 64 1008.3
20260506095055 66 135 1.0 13.0 0.00 0.00 0.00 64 1008.3
20260506094553 67 171 4.0 10.0 0.00 0.00 0.00 64 1008.2
20260506094050 67 0 3.0 12.0 0.00 0.00 0.00 64 1008.3
20260506093554 67 230 4.0 12.0 0.00 0.00 0.00 64 1008.2
20260506093058 67 167 2.0 9.0 0.00 0.00 0.00 63 1008.3
20260506092551 67 144 1.0 12.0 0.00 0.00 0.00 63 1008.2
20260506092053 67 180 2.0 12.0 0.00 0.00 0.00 63 1008.4
20260506091558 67 196 4.0 13.0 0.00 0.00 0.00 63 1008.1
20260506091053 67 248 2.0 13.0 0.00 0.00 0.00 63 1008.3
20260506090552 67 154 2.0 16.0 0.00 0.00 0.00 63 1008.3
20260506090054 67 246 4.0 16.0 0.00 0.00 0.00 62 1008.5
20260506085551 67 202 3.0 14.0 0.00 0.00 0.00 62 1008.6
20260506085051 67 169 4.0 14.0 0.00 0.00 0.00 62 1008.7
20260506084553 67 148 4.0 10.0 0.00 0.00 0.00 62 1008.7
20260506084053 67 155 2.0 8.0 0.00 0.00 0.00 62 1008.7
20260506083553 67 0 2.0 8.0 0.00 0.00 0.00 61 1008.6
20260506083115 67 205 2.0 10.0 0.00 0.00 0.00 61 1008.5
20260506082550 67 172 2.0 10.0 0.00 0.00 0.00 61 1008.5
20260506082052 67 157 3.0 11.0 0.00 0.00 0.00 60 1008.6
20260506081604 67 154 4.0 11.0 0.00 0.00 0.00 60 1008.6
20260506081052 68 125 3.0 12.0 0.00 0.00 0.00 60 1008.8
20260506080556 68 146 2.0 12.0 0.00 0.00 0.00 59 1008.6
20260506073057 69 150 2.0 13.0 0.00 0.00 0.00 57 1008.6
20260506072551 69 237 3.0 10.0 0.00 0.00 0.00 57 1008.8
20260506072050 69 115 2.0 10.0 0.00 0.00 0.00 57 1008.6
20260506071556 69 0 2.0 13.0 0.00 0.00 0.00 56 1008.8
20260506071052 69 218 3.0 13.0 0.00 0.00 0.00 56 1008.8
20260506070552 69 216 4.0 13.0 0.00 0.00 0.00 56 1008.7